星链-32258 (STARLINK-32258)

导读 | 星芒AI

STARLINK-32258 是 SpaceX Starlink 卫星互联网项目中的一颗低轨卫星,属于第5批部署的星链卫星之一。该卫星于2022年发射,运行在约550公里高的近地轨道,旨在为全球提供高速互联网服务。作为星链星座的一部分,STARLINK-32258 采用先进推进系统,具备自主变轨和避碰能力,有助于提升网络覆盖与稳定性,同时减少对天文观测的干扰。

基本信息
目录编号:
60939
目录名称:
STARLINK-32258
国际标识:
2024-155R
轨道中心:
EARTH
卫星名称:
星链-32258
卫星全名:
星链-32258 (STARLINK-32258)
卫星状态:
在轨 (已飞行429 天)
发射日期:
2024-08-31 UTC
国别 :
美国 (US)
星等 :
--
轨道信息
数据来源 国际轨道数据
星历时间: 2025-11-02T19:25:44+0800
1天前
查看轨道信息
半长轴: 6853.439km
偏心率: 0.0001477
轨道倾角: 53.160°
近地点辐角 95.134°
升交点赤经 0.582°
平近点角 264.983°
近地点: 474.291km
远地点: 476.317km
周期: 94.107分钟
每日圈数: 15.301711
详细信息
固有亮度:
5
最大亮度:
2.5
卫星平台:
Starlink V1.0
覆盖范围:
全球
运营商:
太空探索技术公司
运营商所在国:
美国
制造商(研发单位):
太空探索技术公司
制造商所在国:
美国
使用方式:
暂无
卫星简介
Starlink 计划是 SpaceX 推出的全球卫星互联网项目,通过发射低轨道卫星,为全球尤其是偏远地区提供高速、低延迟的互联网服务。自 2019 年起,Starlink 已部署数千颗卫星,旨在缩小全球数字鸿沟,推动互联网普及。该项目还为军事、航空等行业提供通信支持,带来广泛经济效益。
2D轨道图
3D轨道图
轨道高度分析图
轨道倾角分析图
轨道综合分析图
查看轨道综合分析图